Time,TemperatureF,DewpointF,PressureIn,WindDirection,WindDirectionDegrees,WindSpeedMPH,WindSpeedGustMPH,Humidity,HourlyPrecipIn,Conditions,Clouds,dailyrainin,SoftwareType,DateUTC
2013-06-19 00:03:00,74.8,71.3,29.99,North,355,1.0,7.0,89,0.02,,SKC,0.01,VWS V14.01,2013-06-19 05:03:00,
2013-06-19 00:08:00,74.5,71.1,29.99,NE,55,0.0,7.0,89,0.04,,SKC,0.03,VWS V14.01,2013-06-19 05:08:00,
2013-06-19 00:13:00,73.9,70.1,29.99,NNW,344,0.0,7.0,88,0.12,,SKC,0.11,VWS V14.01,2013-06-19 05:13:00,
2013-06-19 00:18:00,73.4,69.6,29.99,NNW,333,3.0,7.0,88,0.17,,SKC,0.16,VWS V14.01,2013-06-19 05:18:00,
2013-06-19 00:23:00,73.1,69.3,29.98,NNE,30,6.0,7.0,88,0.21,,SKC,0.20,VWS V14.01,2013-06-19 05:23:00,
2013-06-19 00:28:00,72.9,68.8,29.99,NNE,21,1.0,7.0,87,0.26,,SKC,0.25,VWS V14.01,2013-06-19 05:28:00,
2013-06-19 00:33:00,72.6,68.5,30.00,NE,37,1.0,6.0,87,0.33,,SKC,0.32,VWS V14.01,2013-06-19 05:33:00,
2013-06-19 00:38:00,72.4,68.3,29.99,NE,37,2.0,6.0,87,0.46,,SKC,0.45,VWS V14.01,2013-06-19 05:38:00,
2013-06-19 00:43:00,72.2,68.1,29.98,NE,37,2.0,6.0,87,0.55,,SKC,0.54,VWS V14.01,2013-06-19 05:43:00,
2013-06-19 00:48:00,72.2,67.8,29.98,NE,37,0.0,6.0,86,0.56,,SKC,0.55,VWS V14.01,2013-06-19 05:48:00,
2013-06-19 00:53:00,72.1,67.7,29.98,NE,37,1.0,6.0,86,0.59,,SKC,0.58,VWS V14.01,2013-06-19 05:53:00,
2013-06-19 00:58:00,72.0,67.6,29.97,NE,37,0.0,6.0,86,0.59,,SKC,0.58,VWS V14.01,2013-06-19 05:58:00,
2013-06-19 01:03:00,72.0,67.2,29.97,NE,37,0.0,2.0,85,0.58,,SKC,0.58,VWS V14.01,2013-06-19 06:03:00,
2013-06-19 01:08:00,72.0,67.2,29.97,NE,37,0.0,2.0,85,0.58,,SKC,0.58,VWS V14.01,2013-06-19 06:08:00,
2013-06-19 01:13:00,72.0,67.2,29.97,NE,37,0.0,2.0,85,0.58,,SKC,0.58,VWS V14.01,2013-06-19 06:13:00,
2013-06-19 01:18:00,72.0,67.2,29.97,NE,37,0.0,2.0,85,0.58,,SKC,0.58,VWS V14.01,2013-06-19 06:18:00,
2013-06-19 01:23:00,71.9,67.2,29.97,NE,37,0.0,2.0,85,0.58,,SKC,0.58,VWS V14.01,2013-06-19 06:23:00,
2013-06-19 01:28:00,71.9,67.2,29.97,NE,37,0.0,2.0,85,0.58,,SKC,0.58,VWS V14.01,2013-06-19 06:28:00,
2013-06-19 01:33:00,71.9,67.2,29.97,NE,37,0.0,1.0,85,0.30,,SKC,0.58,VWS V14.01,2013-06-19 06:33:00,
2013-06-19 01:38:00,71.9,66.8,29.96,NE,37,0.0,1.0,84,0.30,,SKC,0.58,VWS V14.01,2013-06-19 06:38:00,
2013-06-19 01:43:00,71.8,66.7,29.96,NE,37,0.0,3.0,84,0.30,,SKC,0.58,VWS V14.01,2013-06-19 06:43:00,
2013-06-19 01:48:00,71.8,66.7,29.96,NE,37,0.0,3.0,84,0.30,,SKC,0.58,VWS V14.01,2013-06-19 06:48:00,
2013-06-19 01:53:00,71.8,66.7,29.95,NE,37,0.0,3.0,84,0.30,,SKC,0.58,VWS V14.01,2013-06-19 06:53:00,
2013-06-19 01:58:00,71.7,66.6,29.95,NE,37,2.0,3.0,84,0.30,,SKC,0.58,VWS V14.01,2013-06-19 06:58:00,
2013-06-19 02:03:00,71.7,66.6,29.95,NE,37,0.0,0.0,84,0.00,,SKC,0.58,VWS V14.01,2013-06-19 07:03:00,
2013-06-19 02:08:00,71.6,66.5,29.94,NE,37,0.0,1.0,84,0.00,,SKC,0.58,VWS V14.01,2013-06-19 07:08:00,
2013-06-19 02:13:00,71.5,66.4,29.94,NE,37,0.0,1.0,84,0.00,,SKC,0.58,VWS V14.01,2013-06-19 07:13:00,
2013-06-19 02:18:00,71.5,66.4,29.94,NE,37,0.0,1.0,84,0.00,,SKC,0.58,VWS V14.01,2013-06-19 07:18:00,
2013-06-19 02:23:00,71.4,66.3,29.94,NE,37,0.0,1.0,84,0.00,,SKC,0.58,VWS V14.01,2013-06-19 07:23:00,
2013-06-19 02:28:00,71.4,66.3,29.94,NE,37,0.0,1.0,84,0.00,,SKC,0.58,VWS V14.01,2013-06-19 07:28:00,
2013-06-19 02:33:00,71.3,66.2,29.94,NE,37,0.0,0.0,84,0.00,,SKC,0.58,VWS V14.01,2013-06-19 07:33:00,
2013-06-19 02:38:00,71.2,66.1,29.94,NE,37,0.0,0.0,84,0.00,,SKC,0.58,VWS V14.01,2013-06-19 07:38:00,
2013-06-19 02:43:00,71.2,66.1,29.93,NE,37,0.0,0.0,84,0.00,,SKC,0.58,VWS V14.01,2013-06-19 07:43:00,
2013-06-19 02:48:00,71.1,66.0,29.93,NE,37,0.0,0.0,84,0.00,,SKC,0.58,VWS V14.01,2013-06-19 07:48:00,
2013-06-19 02:53:00,71.1,66.0,29.93,NE,37,0.0,0.0,84,0.00,,SKC,0.58,VWS V14.01,2013-06-19 07:53:00,
2013-06-19 02:58:00,71.0,65.9,29.93,NE,37,0.0,0.0,84,0.00,,SKC,0.58,VWS V14.01,2013-06-19 07:58:00,
2013-06-19 03:03:00,71.0,65.9,29.93,NE,37,0.0,0.0,84,0.00,,SKC,0.58,VWS V14.01,2013-06-19 08:03:00,
2013-06-19 03:08:00,70.9,65.8,29.93,NE,37,0.0,0.0,84,0.00,,SKC,0.58,VWS V14.01,2013-06-19 08:08:00,
2013-06-19 03:13:00,70.9,65.8,29.92,NE,37,0.0,1.0,84,0.00,,SKC,0.58,VWS V14.01,2013-06-19 08:13:00,
2013-06-19 03:18:00,71.0,65.9,29.92,NE,37,0.0,1.0,84,0.00,,SKC,0.58,VWS V14.01,2013-06-19 08:18:00,
2013-06-19 03:23:00,71.0,65.6,29.92,NE,37,0.0,1.0,83,0.00,,SKC,0.58,VWS V14.01,2013-06-19 08:23:00,
2013-06-19 03:28:00,71.0,65.6,29.92,NE,37,0.0,1.0,83,0.00,,SKC,0.58,VWS V14.01,2013-06-19 08:28:00,
2013-06-19 03:33:00,71.0,65.9,29.92,NE,37,0.0,0.0,84,0.00,,SKC,0.58,VWS V14.01,2013-06-19 08:33:00,
2013-06-19 03:38:00,70.8,65.7,29.92,NE,37,0.0,0.0,84,0.00,,SKC,0.58,VWS V14.01,2013-06-19 08:38:00,
2013-06-19 03:43:00,70.8,65.7,29.92,NE,37,0.0,0.0,84,0.00,,SKC,0.58,VWS V14.01,2013-06-19 08:43:00,
2013-06-19 03:48:00,70.7,65.6,29.92,NE,37,0.0,0.0,84,0.00,,SKC,0.58,VWS V14.01,2013-06-19 08:48:00,
2013-06-19 03:53:00,70.7,65.6,29.92,NE,37,0.0,0.0,84,0.00,,SKC,0.58,VWS V14.01,2013-06-19 08:53:00,
2013-06-19 03:58:00,70.7,65.6,29.92,NE,37,0.0,0.0,84,0.00,,SKC,0.58,VWS V14.01,2013-06-19 08:58:00,
2013-06-19 04:03:00,70.7,65.6,29.92,NE,37,0.0,2.0,84,0.00,,SKC,0.58,VWS V14.01,2013-06-19 09:03:00,
2013-06-19 04:08:00,70.8,65.4,29.92,NE,37,0.0,2.0,83,0.00,,SKC,0.58,VWS V14.01,2013-06-19 09:08:00,
2013-06-19 04:13:00,70.8,65.4,29.92,NE,37,0.0,2.0,83,0.00,,SKC,0.58,VWS V14.01,2013-06-19 09:13:00,
2013-06-19 04:17:00,70.8,65.4,29.92,NE,37,0.0,2.0,83,0.00,,SKC,0.58,VWS V14.01,2013-06-19 09:17:00,
2013-06-19 04:22:00,70.8,65.4,29.92,NE,37,0.0,2.0,83,0.00,,SKC,0.58,VWS V14.01,2013-06-19 09:22:00,
2013-06-19 04:27:00,70.7,65.6,29.93,NE,37,0.0,2.0,84,0.00,,SKC,0.58,VWS V14.01,2013-06-19 09:27:00,
2013-06-19 04:32:00,70.6,65.5,29.93,NE,37,0.0,0.0,84,0.00,,SKC,0.58,VWS V14.01,2013-06-19 09:32:00,
2013-06-19 04:37:00,70.7,65.3,29.93,NE,37,0.0,1.0,83,0.00,,SKC,0.58,VWS V14.01,2013-06-19 09:37:00,
2013-06-19 04:42:00,70.8,65.4,29.93,NE,37,0.0,1.0,83,0.00,,SKC,0.58,VWS V14.01,2013-06-19 09:42:00,
2013-06-19 04:47:00,70.9,65.5,29.93,NE,37,0.0,1.0,83,0.00,,SKC,0.58,VWS V14.01,2013-06-19 09:47:00,
2013-06-19 04:52:00,70.8,65.4,29.93,NE,37,0.0,1.0,83,0.00,,SKC,0.58,VWS V14.01,2013-06-19 09:52:00,
2013-06-19 04:57:00,70.7,65.6,29.93,NE,37,0.0,1.0,84,0.00,,SKC,0.58,VWS V14.01,2013-06-19 09:57:00,
2013-06-19 05:02:00,70.7,65.3,29.93,NE,37,0.0,0.0,83,0.00,,SKC,0.58,VWS V14.01,2013-06-19 10:02:00,
2013-06-19 05:07:00,71.0,65.6,29.93,NE,37,0.0,0.0,83,0.00,,SKC,0.58,VWS V14.01,2013-06-19 10:07:00,
2013-06-19 05:12:00,71.0,65.6,29.94,NE,37,0.0,0.0,83,0.00,,SKC,0.58,VWS V14.01,2013-06-19 10:12:00,
2013-06-19 05:17:00,70.8,65.7,29.94,NE,37,0.0,1.0,84,0.00,,SKC,0.58,VWS V14.01,2013-06-19 10:17:00,
2013-06-19 05:22:00,70.8,65.4,29.94,NNW,338,0.0,1.0,83,0.01,,SKC,0.59,VWS V14.01,2013-06-19 10:22:00,
2013-06-19 05:27:00,70.8,65.4,29.94,NNW,338,0.0,1.0,83,0.01,,SKC,0.59,VWS V14.01,2013-06-19 10:27:00,
2013-06-19 05:32:00,70.7,65.3,29.94,NNW,338,0.0,0.0,83,0.01,,SKC,0.59,VWS V14.01,2013-06-19 10:32:00,
2013-06-19 05:37:00,70.6,65.5,29.94,NNW,338,0.0,0.0,84,0.01,,SKC,0.59,VWS V14.01,2013-06-19 10:37:00,
2013-06-19 05:42:00,70.5,65.1,29.94,NNE,22,0.0,0.0,83,0.01,,SKC,0.59,VWS V14.01,2013-06-19 10:42:00,
2013-06-19 05:47:00,70.4,65.0,29.95,North,355,0.0,0.0,83,0.01,,SKC,0.59,VWS V14.01,2013-06-19 10:47:00,
2013-06-19 05:52:00,70.3,64.9,29.95,NNW,327,0.0,0.0,83,0.01,,SKC,0.59,VWS V14.01,2013-06-19 10:52:00,
2013-06-19 05:57:00,70.5,65.1,29.95,NNW,327,0.0,0.0,83,0.01,,SKC,0.59,VWS V14.01,2013-06-19 10:57:00,
2013-06-19 06:02:00,70.5,65.1,29.95,WSW,237,0.0,0.0,83,0.01,,SKC,0.59,VWS V14.01,2013-06-19 11:02:00,
2013-06-19 06:07:00,70.5,65.1,29.95,WSW,250,0.0,0.0,83,0.01,,SKC,0.59,VWS V14.01,2013-06-19 11:07:00,
2013-06-19 06:12:00,70.4,65.0,29.95,WSW,250,0.0,0.0,83,0.01,,SKC,0.59,VWS V14.01,2013-06-19 11:12:00,
2013-06-19 06:17:00,70.4,65.0,29.95,WSW,250,0.0,0.0,83,0.01,,SKC,0.59,VWS V14.01,2013-06-19 11:17:00,
2013-06-19 06:22:00,70.6,65.5,29.95,WSW,250,0.0,0.0,84,0.01,,SKC,0.59,VWS V14.01,2013-06-19 11:22:00,
2013-06-19 06:27:00,70.9,65.8,29.95,WSW,250,0.0,0.0,84,0.01,,SKC,0.59,VWS V14.01,2013-06-19 11:27:00,
2013-06-19 06:32:00,71.2,66.1,29.95,WSW,252,0.0,0.0,84,0.00,,SKC,0.59,VWS V14.01,2013-06-19 11:32:00,
2013-06-19 06:37:00,71.7,66.6,29.95,SSW,213,0.0,0.0,84,0.00,,SKC,0.59,VWS V14.01,2013-06-19 11:37:00,
2013-06-19 06:42:00,72.4,67.3,29.95,SSW,197,0.0,1.0,84,0.00,,SKC,0.59,VWS V14.01,2013-06-19 11:42:00,
2013-06-19 06:47:00,72.8,67.7,29.95,SSW,211,0.0,1.0,84,0.00,,SKC,0.59,VWS V14.01,2013-06-19 11:47:00,
2013-06-19 06:52:00,73.0,67.9,29.95,SSW,203,0.0,1.0,84,0.00,,SKC,0.59,VWS V14.01,2013-06-19 11:52:00,
2013-06-19 06:57:00,73.7,68.6,29.96,SSW,203,0.0,1.0,84,0.00,,SKC,0.59,VWS V14.01,2013-06-19 11:57:00,
2013-06-19 07:02:00,73.9,68.8,29.96,SSW,203,0.0,0.0,84,0.00,,SKC,0.59,VWS V14.01,2013-06-19 12:02:00,
2013-06-19 07:07:00,74.1,69.0,29.96,SW,215,0.0,0.0,84,0.00,,SKC,0.59,VWS V14.01,2013-06-19 12:07:00,
2013-06-19 07:12:00,74.5,69.0,29.96,SW,216,0.0,0.0,83,0.00,,SKC,0.59,VWS V14.01,2013-06-19 12:12:00,
2013-06-19 07:17:00,74.9,69.4,29.97,SW,216,0.0,0.0,83,0.00,,SKC,0.59,VWS V14.01,2013-06-19 12:17:00,
2013-06-19 07:22:00,75.3,69.8,29.97,SW,217,0.0,1.0,83,0.00,,SKC,0.59,VWS V14.01,2013-06-19 12:22:00,
2013-06-19 07:27:00,75.5,70.3,29.97,SW,231,0.0,1.0,84,0.00,,SKC,0.59,VWS V14.01,2013-06-19 12:27:00,
2013-06-19 07:32:00,76.1,70.6,29.97,West,261,0.0,0.0,83,0.00,,SKC,0.59,VWS V14.01,2013-06-19 12:32:00,
2013-06-19 07:37:00,76.6,71.1,29.97,West,261,0.0,1.0,83,0.00,,SKC,0.59,VWS V14.01,2013-06-19 12:37:00,
2013-06-19 07:42:00,77.0,71.8,29.97,West,261,0.0,2.0,84,0.00,,SKC,0.59,VWS V14.01,2013-06-19 12:42:00,
2013-06-19 07:47:00,77.5,72.6,29.98,WNW,295,1.0,5.0,85,0.00,,SKC,0.59,VWS V14.01,2013-06-19 12:47:00,
2013-06-19 07:52:00,78.1,73.9,29.98,NW,319,2.0,5.0,87,0.00,,SKC,0.59,VWS V14.01,2013-06-19 12:52:00,
2013-06-19 07:57:00,78.7,74.8,29.98,NW,322,1.0,5.0,88,0.00,,SKC,0.59,VWS V14.01,2013-06-19 12:57:00,
2013-06-19 08:02:00,79.1,75.6,29.98,NW,321,0.0,1.0,89,0.00,,SKC,0.59,VWS V14.01,2013-06-19 13:02:00,
2013-06-19 08:07:00,79.6,76.1,29.98,WNW,301,4.0,6.0,89,0.00,,SKC,0.59,VWS V14.01,2013-06-19 13:07:00,
2013-06-19 08:12:00,80.0,76.5,29.98,WNW,302,4.0,6.0,89,0.00,,SKC,0.59,VWS V14.01,2013-06-19 13:12:00,
2013-06-19 08:17:00,80.3,76.4,29.98,WNW,299,5.0,6.0,88,0.00,,SKC,0.59,VWS V14.01,2013-06-19 13:17:00,
2013-06-19 08:22:00,80.6,76.0,29.99,West,269,6.0,8.0,86,0.00,,SKC,0.59,VWS V14.01,2013-06-19 13:22:00,
2013-06-19 08:27:00,80.9,76.7,29.99,WSW,242,0.0,8.0,87,0.00,,SKC,0.59,VWS V14.01,2013-06-19 13:27:00,
2013-06-19 08:32:00,81.1,75.8,29.99,West,273,3.0,9.0,84,0.00,,SKC,0.59,VWS V14.01,2013-06-19 13:32:00,
2013-06-19 08:37:00,81.2,75.9,29.99,WNW,294,8.0,11.0,84,0.00,,SKC,0.59,VWS V14.01,2013-06-19 13:37:00,
2013-06-19 08:42:00,81.2,75.6,29.99,WNW,294,7.0,11.0,83,0.00,,SKC,0.59,VWS V14.01,2013-06-19 13:42:00,
2013-06-19 08:47:00,81.4,76.1,29.99,NW,313,5.0,11.0,84,0.00,,SKC,0.59,VWS V14.01,2013-06-19 13:47:00,
2013-06-19 08:52:00,81.4,76.1,29.99,NW,313,0.0,11.0,84,0.00,,SKC,0.59,VWS V14.01,2013-06-19 13:52:00,
2013-06-19 08:57:00,81.8,76.5,29.99,NW,325,6.0,11.0,84,0.00,,SKC,0.59,VWS V14.01,2013-06-19 13:57:00,
2013-06-19 09:02:00,82.1,76.1,29.99,WNW,302,6.0,7.0,82,0.00,,SKC,0.59,VWS V14.01,2013-06-19 14:02:00,
2013-06-19 09:07:00,82.3,75.9,29.99,NW,304,5.0,8.0,81,0.00,,SKC,0.59,VWS V14.01,2013-06-19 14:07:00,
2013-06-19 09:12:00,82.4,76.0,29.99,NW,311,4.0,8.0,81,0.00,,SKC,0.59,VWS V14.01,2013-06-19 14:12:00,
2013-06-19 09:17:00,82.5,75.3,29.99,West,278,4.0,9.0,79,0.00,,SKC,0.59,VWS V14.01,2013-06-19 14:17:00,
2013-06-19 09:22:00,82.3,75.5,29.99,NW,309,4.0,10.0,80,0.00,,SKC,0.59,VWS V14.01,2013-06-19 14:22:00,
2013-06-19 09:27:00,82.4,76.0,29.99,NW,316,6.0,10.0,81,0.00,,SKC,0.59,VWS V14.01,2013-06-19 14:27:00,
2013-06-19 09:32:00,82.4,75.6,29.99,NW,314,3.0,6.0,80,0.00,,SKC,0.59,VWS V14.01,2013-06-19 14:32:00,
2013-06-19 09:37:00,82.2,75.4,29.99,WNW,282,7.0,7.0,80,0.00,,SKC,0.59,VWS V14.01,2013-06-19 14:37:00,
2013-06-19 09:42:00,82.1,75.3,29.99,NW,317,4.0,7.0,80,0.00,,SKC,0.59,VWS V14.01,2013-06-19 14:42:00,
2013-06-19 09:47:00,82.2,75.8,29.99,WNW,303,4.0,8.0,81,0.00,,SKC,0.59,VWS V14.01,2013-06-19 14:47:00,
2013-06-19 09:52:00,82.1,75.7,29.99,WNW,294,5.0,8.0,81,0.00,,SKC,0.59,VWS V14.01,2013-06-19 14:52:00,
2013-06-19 09:57:00,82.3,75.5,29.99,WNW,291,4.0,8.0,80,0.00,,SKC,0.59,VWS V14.01,2013-06-19 14:57:00,
2013-06-19 10:02:00,82.5,76.1,29.99,West,281,4.0,7.0,81,0.00,,SKC,0.59,VWS V14.01,2013-06-19 15:02:00,
2013-06-19 10:07:00,82.7,75.9,30.00,NW,304,5.0,9.0,80,0.00,,SKC,0.59,VWS V14.01,2013-06-19 15:07:00,
2013-06-19 10:12:00,83.3,76.5,30.00,NW,311,8.0,9.0,80,0.00,,SKC,0.59,VWS V14.01,2013-06-19 15:12:00,
2013-06-19 10:17:00,83.5,75.9,30.00,WNW,302,4.0,9.0,78,0.00,,SKC,0.59,VWS V14.01,2013-06-19 15:17:00,
2013-06-19 10:22:00,83.2,75.2,30.00,North,350,1.0,10.0,77,0.00,,SKC,0.59,VWS V14.01,2013-06-19 15:22:00,
2013-06-19 10:27:00,83.0,76.2,30.00,NNW,333,4.0,10.0,80,0.00,,SKC,0.59,VWS V14.01,2013-06-19 15:27:00,
2013-06-19 10:32:00,82.7,75.5,30.00,WNW,302,6.0,10.0,79,0.00,,SKC,0.59,VWS V14.01,2013-06-19 15:32:00,
2013-06-19 10:37:00,82.5,75.7,30.00,West,260,6.0,10.0,80,0.00,,SKC,0.59,VWS V14.01,2013-06-19 15:37:00,
2013-06-19 10:42:00,82.7,75.5,30.00,WNW,292,6.0,10.0,79,0.00,,SKC,0.59,VWS V14.01,2013-06-19 15:42:00,
2013-06-19 10:47:00,82.5,76.1,30.00,WNW,292,4.0,10.0,81,0.00,,SKC,0.59,VWS V14.01,2013-06-19 15:47:00,
2013-06-19 10:52:00,82.0,75.6,30.00,NW,315,1.0,10.0,81,0.00,,SKC,0.59,VWS V14.01,2013-06-19 15:52:00,
2013-06-19 10:57:00,81.5,75.1,30.00,NW,311,4.0,10.0,81,0.00,,SKC,0.59,VWS V14.01,2013-06-19 15:57:00,
2013-06-19 11:02:00,81.3,75.3,30.00,NW,311,0.0,5.0,82,0.00,,SKC,0.59,VWS V14.01,2013-06-19 16:02:00,
2013-06-19 11:07:00,81.2,75.2,30.00,NW,313,5.0,7.0,82,0.00,,SKC,0.59,VWS V14.01,2013-06-19 16:07:00,
2013-06-19 11:12:00,81.9,76.2,30.00,NW,314,0.0,7.0,83,0.00,,SKC,0.59,VWS V14.01,2013-06-19 16:12:00,
2013-06-19 11:17:00,83.0,76.2,30.00,NW,319,5.0,10.0,80,0.00,,SKC,0.59,VWS V14.01,2013-06-19 16:17:00,
2013-06-19 11:22:00,83.6,76.0,30.00,WNW,288,9.0,10.0,78,0.00,,SKC,0.59,VWS V14.01,2013-06-19 16:22:00,
2013-06-19 11:27:00,83.5,76.3,30.00,NW,317,4.0,10.0,79,0.00,,SKC,0.59,VWS V14.01,2013-06-19 16:27:00,
2013-06-19 11:32:00,83.3,75.7,30.00,WNW,302,4.0,7.0,78,0.00,,SKC,0.59,VWS V14.01,2013-06-19 16:32:00,
2013-06-19 11:37:00,83.3,75.7,30.00,NW,307,7.0,11.0,78,0.00,,SKC,0.59,VWS V14.01,2013-06-19 16:37:00,
2013-06-19 11:42:00,83.3,76.1,30.00,NW,307,4.0,11.0,79,0.00,,SKC,0.59,VWS V14.01,2013-06-19 16:42:00,
2013-06-19 11:47:00,83.4,76.6,30.00,NW,308,0.0,11.0,80,0.00,,SKC,0.59,VWS V14.01,2013-06-19 16:47:00,
2013-06-19 11:52:00,83.8,76.2,30.00,NNE,13,4.0,11.0,78,0.00,,SKC,0.59,VWS V14.01,2013-06-19 16:52:00,
2013-06-19 11:57:00,84.0,76.0,29.99,NW,308,3.0,11.0,77,0.00,,SKC,0.59,VWS V14.01,2013-06-19 16:57:00,
2013-06-19 12:02:00,84.0,76.8,29.99,NNW,333,1.0,6.0,79,0.00,,SKC,0.59,VWS V14.01,2013-06-19 17:02:00,
2013-06-19 12:07:00,84.7,77.1,29.99,North,11,0.0,6.0,78,0.00,,SKC,0.59,VWS V14.01,2013-06-19 17:07:00,
2013-06-19 12:12:00,84.9,76.1,29.99,WNW,286,6.0,9.0,75,0.00,,SKC,0.59,VWS V14.01,2013-06-19 17:12:00,
2013-06-19 12:17:00,84.9,76.1,29.99,NW,313,3.0,9.0,75,0.00,,SKC,0.59,VWS V14.01,2013-06-19 17:17:00,
2013-06-19 12:22:00,85.2,76.4,29.99,NW,325,2.0,9.0,75,0.00,,SKC,0.59,VWS V14.01,2013-06-19 17:22:00,
2013-06-19 12:27:00,85.0,75.8,29.99,NW,317,1.0,9.0,74,0.00,,SKC,0.59,VWS V14.01,2013-06-19 17:27:00,
2013-06-19 12:32:00,84.7,75.9,29.99,NNW,346,2.0,4.0,75,0.00,,SKC,0.59,VWS V14.01,2013-06-19 17:32:00,
2013-06-19 12:37:00,84.6,75.4,29.99,NNW,340,6.0,8.0,74,0.00,,SKC,0.59,VWS V14.01,2013-06-19 17:37:00,
2013-06-19 12:42:00,84.7,75.5,29.99,NW,314,4.0,8.0,74,0.00,,SKC,0.59,VWS V14.01,2013-06-19 17:42:00,
2013-06-19 12:47:00,84.9,76.1,29.99,WNW,303,8.0,8.0,75,0.00,,SKC,0.59,VWS V14.01,2013-06-19 17:47:00,
2013-06-19 12:52:00,84.7,74.7,29.99,NW,309,5.0,12.0,72,0.00,,SKC,0.59,VWS V14.01,2013-06-19 17:52:00,
2013-06-19 12:57:00,84.6,75.4,29.98,NNW,331,5.0,12.0,74,0.00,,SKC,0.59,VWS V14.01,2013-06-19 17:57:00,
2013-06-19 13:02:00,84.5,74.9,29.98,NW,310,7.0,7.0,73,0.00,,SKC,0.59,VWS V14.01,2013-06-19 18:02:00,
2013-06-19 13:07:00,84.3,75.5,29.98,NNW,347,5.0,7.0,75,0.00,,SKC,0.59,VWS V14.01,2013-06-19 18:07:00,
2013-06-19 13:12:00,84.1,75.7,29.98,NNW,347,3.0,7.0,76,0.00,,SKC,0.59,VWS V14.01,2013-06-19 18:12:00,
2013-06-19 13:17:00,84.0,75.6,29.98,NNW,344,5.0,7.0,76,0.00,,SKC,0.59,VWS V14.01,2013-06-19 18:17:00,
2013-06-19 13:22:00,84.3,76.3,29.98,NNW,331,0.0,7.0,77,0.00,,SKC,0.59,VWS V14.01,2013-06-19 18:22:00,
2013-06-19 13:27:00,84.4,74.8,29.98,NNW,330,0.0,7.0,73,0.00,,SKC,0.59,VWS V14.01,2013-06-19 18:27:00,
2013-06-19 13:32:00,84.5,74.9,29.98,WSW,237,0.0,1.0,73,0.00,,SKC,0.59,VWS V14.01,2013-06-19 18:32:00,
2013-06-19 13:37:00,84.5,74.9,29.98,NW,321,3.0,7.0,73,0.00,,SKC,0.59,VWS V14.01,2013-06-19 18:37:00,
2013-06-19 13:42:00,84.8,75.6,29.98,NNW,342,6.0,8.0,74,0.00,,SKC,0.59,VWS V14.01,2013-06-19 18:42:00,
2013-06-19 13:47:00,85.4,74.9,29.98,NNW,344,1.0,8.0,71,0.00,,SKC,0.59,VWS V14.01,2013-06-19 18:47:00,
2013-06-19 13:52:00,85.4,74.5,29.98,NNE,15,0.0,10.0,70,0.00,,SKC,0.59,VWS V14.01,2013-06-19 18:52:00,
2013-06-19 13:57:00,85.2,75.6,29.97,WNW,288,2.0,10.0,73,0.00,,SKC,0.59,VWS V14.01,2013-06-19 18:57:00,
2013-06-19 14:02:00,85.4,75.3,29.97,NW,309,5.0,8.0,72,0.00,,SKC,0.59,VWS V14.01,2013-06-19 19:02:00,
2013-06-19 14:07:00,85.5,75.0,29.97,NW,313,1.0,8.0,71,0.00,,SKC,0.59,VWS V14.01,2013-06-19 19:07:00,
2013-06-19 14:12:00,86.0,74.7,29.98,NW,317,5.0,8.0,69,0.00,,SKC,0.59,VWS V14.01,2013-06-19 19:12:00,
2013-06-19 14:17:00,86.0,74.2,29.97,NW,325,5.0,8.0,68,0.00,,SKC,0.59,VWS V14.01,2013-06-19 19:17:00,
2013-06-19 14:22:00,85.7,73.0,29.97,NW,322,2.0,8.0,66,0.00,,SKC,0.59,VWS V14.01,2013-06-19 19:22:00,
2013-06-19 14:27:00,86.1,75.2,29.97,NW,326,4.0,8.0,70,0.00,,SKC,0.59,VWS V14.01,2013-06-19 19:27:00,
2013-06-19 14:32:00,85.6,73.8,29.97,NNW,329,4.0,7.0,68,0.00,,SKC,0.59,VWS V14.01,2013-06-19 19:32:00,
2013-06-19 14:37:00,85.5,74.2,29.97,NNW,344,2.0,8.0,69,0.00,,SKC,0.59,VWS V14.01,2013-06-19 19:37:00,
2013-06-19 14:42:00,85.7,75.6,29.97,WNW,283,3.0,8.0,72,0.00,,SKC,0.59,VWS V14.01,2013-06-19 19:42:00,
2013-06-19 14:47:00,85.6,73.8,29.97,NW,319,0.0,8.0,68,0.00,,SKC,0.59,VWS V14.01,2013-06-19 19:47:00,
2013-06-19 14:52:00,85.7,74.4,29.97,NW,311,6.0,8.0,69,0.00,,SKC,0.59,VWS V14.01,2013-06-19 19:52:00,
2013-06-19 14:57:00,85.6,74.7,29.97,NW,315,5.0,8.0,70,0.00,,SKC,0.59,VWS V14.01,2013-06-19 19:57:00,
2013-06-19 15:02:00,85.8,73.6,29.97,NW,311,0.0,6.0,67,0.00,,SKC,0.59,VWS V14.01,2013-06-19 20:02:00,
2013-06-19 15:07:00,85.9,74.1,29.97,WNW,286,4.0,8.0,68,0.00,,SKC,0.59,VWS V14.01,2013-06-19 20:07:00,
2013-06-19 15:12:00,85.5,74.2,29.96,NNW,328,4.0,9.0,69,0.00,,SKC,0.59,VWS V14.01,2013-06-19 20:12:00,
2013-06-19 15:17:00,85.1,75.1,29.96,NNW,328,5.0,9.0,72,0.00,,SKC,0.59,VWS V14.01,2013-06-19 20:17:00,
2013-06-19 15:22:00,85.4,74.9,29.96,NNW,328,4.0,9.0,71,0.00,,SKC,0.59,VWS V14.01,2013-06-19 20:22:00,
2013-06-19 15:27:00,85.5,75.0,29.96,NNW,329,4.0,9.0,71,0.00,,SKC,0.59,VWS V14.01,2013-06-19 20:27:00,
2013-06-19 15:32:00,85.2,74.7,29.96,NNW,338,2.0,5.0,71,0.00,,SKC,0.59,VWS V14.01,2013-06-19 20:32:00,
2013-06-19 15:37:00,85.0,75.0,29.96,NNW,338,1.0,6.0,72,0.00,,SKC,0.59,VWS V14.01,2013-06-19 20:37:00,
2013-06-19 15:42:00,84.9,74.9,29.96,NNW,338,0.0,6.0,72,0.00,,SKC,0.59,VWS V14.01,2013-06-19 20:42:00,
2013-06-19 15:47:00,84.9,74.9,29.96,NNW,346,4.0,6.0,72,0.00,,SKC,0.59,VWS V14.01,2013-06-19 20:47:00,
2013-06-19 15:52:00,84.8,75.2,29.96,NNW,346,4.0,6.0,73,0.00,,SKC,0.59,VWS V14.01,2013-06-19 20:52:00,
2013-06-19 15:57:00,84.6,75.0,29.96,NNW,345,0.0,6.0,73,0.00,,SKC,0.59,VWS V14.01,2013-06-19 20:57:00,
2013-06-19 16:02:00,84.4,74.8,29.96,NNW,346,0.0,5.0,73,0.00,,SKC,0.59,VWS V14.01,2013-06-19 21:02:00,
2013-06-19 16:07:00,84.4,74.8,29.96,NNW,342,0.0,5.0,73,0.00,,SKC,0.59,VWS V14.01,2013-06-19 21:07:00,
2013-06-19 16:12:00,84.5,75.7,29.95,NNW,342,0.0,5.0,75,0.00,,SKC,0.59,VWS V14.01,2013-06-19 21:12:00,
2013-06-19 16:17:00,84.7,75.9,29.96,NNW,342,2.0,5.0,75,0.00,,SKC,0.59,VWS V14.01,2013-06-19 21:17:00,
2013-06-19 16:22:00,84.8,74.4,29.95,NNW,343,0.0,5.0,71,0.00,,SKC,0.59,VWS V14.01,2013-06-19 21:22:00,
2013-06-19 16:27:00,85.2,76.0,29.95,North,351,0.0,5.0,74,0.00,,SKC,0.59,VWS V14.01,2013-06-19 21:27:00,
2013-06-19 16:32:00,85.5,75.9,29.95,North,351,0.0,1.0,73,0.00,,SKC,0.59,VWS V14.01,2013-06-19 21:32:00,
2013-06-19 16:37:00,85.3,75.2,29.95,North,355,4.0,5.0,72,0.00,,SKC,0.59,VWS V14.01,2013-06-19 21:37:00,
2013-06-19 16:42:00,84.9,74.4,29.95,NNW,329,0.0,5.0,71,0.00,,SKC,0.59,VWS V14.01,2013-06-19 21:42:00,
2013-06-19 16:47:00,84.7,75.9,29.95,NNW,329,0.0,5.0,75,0.00,,SKC,0.59,VWS V14.01,2013-06-19 21:47:00,
2013-06-19 16:52:00,84.7,75.1,29.94,NNW,329,0.0,5.0,73,0.00,,SKC,0.59,VWS V14.01,2013-06-19 21:52:00,
2013-06-19 16:57:00,84.9,74.4,29.94,NNW,329,0.0,5.0,71,0.00,,SKC,0.59,VWS V14.01,2013-06-19 21:57:00,
2013-06-19 17:02:00,84.9,75.3,29.94,NW,309,0.0,1.0,73,0.00,,SKC,0.59,VWS V14.01,2013-06-19 22:02:00,
2013-06-19 17:07:00,84.6,75.4,29.94,NW,306,0.0,1.0,74,0.00,,SKC,0.59,VWS V14.01,2013-06-19 22:07:00,
2013-06-19 17:12:00,84.1,75.3,29.94,West,271,0.0,4.0,75,0.00,,SKC,0.59,VWS V14.01,2013-06-19 22:12:00,
2013-06-19 17:17:00,83.9,75.9,29.94,West,261,0.0,4.0,77,0.00,,SKC,0.59,VWS V14.01,2013-06-19 22:17:00,
2013-06-19 17:22:00,84.0,76.8,29.94,West,261,0.0,4.0,79,0.00,,SKC,0.59,VWS V14.01,2013-06-19 22:22:00,
2013-06-19 17:27:00,84.0,76.4,29.94,West,261,0.0,4.0,78,0.00,,SKC,0.59,VWS V14.01,2013-06-19 22:27:00,
2013-06-19 17:32:00,83.8,75.8,29.94,West,260,0.0,0.0,77,0.00,,SKC,0.59,VWS V14.01,2013-06-19 22:32:00,
2013-06-19 17:37:00,83.7,76.1,29.94,SW,236,0.0,0.0,78,0.00,,SKC,0.59,VWS V14.01,2013-06-19 22:37:00,
2013-06-19 17:42:00,83.5,75.9,29.94,WSW,257,0.0,0.0,78,0.00,,SKC,0.59,VWS V14.01,2013-06-19 22:42:00,
2013-06-19 17:47:00,83.3,75.3,29.94,WSW,257,0.0,1.0,77,0.00,,SKC,0.59,VWS V14.01,2013-06-19 22:47:00,
2013-06-19 17:52:00,83.1,76.3,29.95,WSW,257,0.0,1.0,80,0.00,,SKC,0.59,VWS V14.01,2013-06-19 22:52:00,
2013-06-19 17:57:00,82.9,76.1,29.95,WSW,243,0.0,1.0,80,0.00,,SKC,0.59,VWS V14.01,2013-06-19 22:57:00,
2013-06-19 18:02:00,82.9,76.5,29.95,WSW,244,0.0,0.0,81,0.00,,SKC,0.59,VWS V14.01,2013-06-19 23:02:00,
2013-06-19 18:07:00,82.8,76.0,29.95,West,276,0.0,0.0,80,0.00,,SKC,0.59,VWS V14.01,2013-06-19 23:07:00,
2013-06-19 18:12:00,82.8,76.0,29.96,West,263,0.0,1.0,80,0.00,,SKC,0.59,VWS V14.01,2013-06-19 23:12:00,
2013-06-19 18:17:00,82.7,76.3,29.96,WNW,294,0.0,1.0,81,0.00,,SKC,0.59,VWS V14.01,2013-06-19 23:17:00,
2013-06-19 18:22:00,82.7,77.4,29.96,WNW,287,0.0,1.0,84,0.00,,SKC,0.59,VWS V14.01,2013-06-19 23:22:00,
2013-06-19 18:27:00,82.5,76.4,29.96,NNE,26,0.0,1.0,82,0.00,,SKC,0.59,VWS V14.01,2013-06-19 23:27:00,
2013-06-19 18:32:00,82.3,75.9,29.96,NNE,26,0.0,0.0,81,0.00,,SKC,0.59,VWS V14.01,2013-06-19 23:32:00,
2013-06-19 18:37:00,82.2,76.2,29.97,NNE,13,0.0,1.0,82,0.00,,SKC,0.59,VWS V14.01,2013-06-19 23:37:00,
2013-06-19 18:42:00,82.2,76.2,29.97,NNE,13,0.0,1.0,82,0.00,,SKC,0.59,VWS V14.01,2013-06-19 23:42:00,
2013-06-19 18:47:00,82.1,76.1,29.97,SW,221,0.0,1.0,82,0.00,,SKC,0.59,VWS V14.01,2013-06-19 23:47:00,
2013-06-19 18:52:00,82.0,76.3,29.97,SW,221,0.0,1.0,83,0.00,,SKC,0.59,VWS V14.01,2013-06-19 23:52:00,
2013-06-19 18:57:00,81.9,76.6,29.97,SW,221,0.0,1.0,84,0.00,,SKC,0.59,VWS V14.01,2013-06-19 23:57:00,
2013-06-19 19:02:00,81.6,75.6,29.97,WNW,283,0.0,1.0,82,0.00,,SKC,0.59,VWS V14.01,2013-06-20 00:02:00,
2013-06-19 19:07:00,81.7,76.8,29.97,SW,235,0.0,1.0,85,0.00,,SKC,0.59,VWS V14.01,2013-06-20 00:07:00,
2013-06-19 19:12:00,81.8,76.1,29.97,WNW,290,0.0,1.0,83,0.00,,SKC,0.59,VWS V14.01,2013-06-20 00:12:00,
2013-06-19 19:17:00,82.1,76.8,29.97,WNW,290,0.0,1.0,84,0.00,,SKC,0.59,VWS V14.01,2013-06-20 00:17:00,
2013-06-19 19:22:00,82.1,76.1,29.97,West,270,0.0,1.0,82,0.00,,SKC,0.59,VWS V14.01,2013-06-20 00:22:00,
2013-06-19 19:27:00,82.1,76.4,29.97,West,270,0.0,1.0,83,0.00,,SKC,0.59,VWS V14.01,2013-06-20 00:27:00,
2013-06-19 19:32:00,81.5,75.5,29.97,WSW,252,0.0,0.0,82,0.00,,SKC,0.59,VWS V14.01,2013-06-20 00:32:00,
2013-06-19 19:37:00,81.1,76.2,29.97,WSW,252,0.0,0.0,85,0.00,,SKC,0.59,VWS V14.01,2013-06-20 00:37:00,
2013-06-19 19:42:00,80.4,75.5,29.97,SSW,196,0.0,0.0,85,0.00,,SKC,0.59,VWS V14.01,2013-06-20 00:42:00,
2013-06-19 19:47:00,80.0,75.4,29.98,SSW,196,0.0,0.0,86,0.00,,SKC,0.59,VWS V14.01,2013-06-20 00:47:00,
2013-06-19 19:52:00,79.6,75.4,29.97,SSW,196,0.0,0.0,87,0.00,,SKC,0.59,VWS V14.01,2013-06-20 00:52:00,
2013-06-19 19:57:00,79.1,74.9,29.98,SSW,196,0.0,0.0,87,0.00,,SKC,0.59,VWS V14.01,2013-06-20 00:57:00,
2013-06-19 20:02:00,78.9,75.1,29.98,SSW,196,0.0,0.0,88,0.00,,SKC,0.59,VWS V14.01,2013-06-20 01:02:00,
2013-06-19 20:07:00,78.6,74.8,29.98,WSW,248,0.0,0.0,88,0.00,,SKC,0.59,VWS V14.01,2013-06-20 01:07:00,
2013-06-19 20:12:00,78.5,74.7,29.98,WSW,248,0.0,0.0,88,0.00,,SKC,0.59,VWS V14.01,2013-06-20 01:12:00,
2013-06-19 20:17:00,78.3,74.5,29.98,WSW,248,0.0,0.0,88,0.00,,SKC,0.59,VWS V14.01,2013-06-20 01:17:00,
2013-06-19 20:22:00,77.9,74.1,29.98,WSW,248,0.0,0.0,88,0.00,,SKC,0.59,VWS V14.01,2013-06-20 01:22:00,
2013-06-19 20:27:00,77.6,74.1,29.98,WSW,248,0.0,0.0,89,0.00,,SKC,0.59,VWS V14.01,2013-06-20 01:27:00,
2013-06-19 20:32:00,77.4,73.9,29.99,WSW,248,0.0,0.0,89,0.00,,SKC,0.59,VWS V14.01,2013-06-20 01:32:00,
2013-06-19 20:37:00,77.2,73.7,29.99,WSW,248,0.0,0.0,89,0.00,,SKC,0.59,VWS V14.01,2013-06-20 01:37:00,
2013-06-19 20:42:00,76.9,73.4,29.99,WSW,248,0.0,0.0,89,0.00,,SKC,0.59,VWS V14.01,2013-06-20 01:42:00,
2013-06-19 20:47:00,76.7,73.2,29.99,WSW,248,0.0,0.0,89,0.00,,SKC,0.59,VWS V14.01,2013-06-20 01:47:00,
2013-06-19 20:52:00,76.4,72.9,29.99,WSW,248,0.0,0.0,89,0.00,,SKC,0.59,VWS V14.01,2013-06-20 01:52:00,
2013-06-19 20:57:00,76.1,72.6,29.98,WSW,248,0.0,0.0,89,0.00,,SKC,0.59,VWS V14.01,2013-06-20 01:57:00,
2013-06-19 21:02:00,76.1,72.6,29.99,WSW,248,0.0,0.0,89,0.00,,SKC,0.59,VWS V14.01,2013-06-20 02:02:00,
2013-06-19 21:07:00,75.9,72.1,29.98,WSW,248,0.0,0.0,88,0.00,,SKC,0.59,VWS V14.01,2013-06-20 02:07:00,
2013-06-19 21:12:00,75.8,72.0,29.98,WSW,248,0.0,0.0,88,0.00,,SKC,0.59,VWS V14.01,2013-06-20 02:12:00,
2013-06-19 21:17:00,75.6,71.8,29.99,WSW,248,0.0,1.0,88,0.00,,SKC,0.59,VWS V14.01,2013-06-20 02:17:00,
2013-06-19 21:22:00,75.5,71.7,29.99,WSW,248,0.0,1.0,88,0.00,,SKC,0.59,VWS V14.01,2013-06-20 02:22:00,
2013-06-19 21:27:00,75.3,71.5,29.99,WSW,248,0.0,1.0,88,0.00,,SKC,0.59,VWS V14.01,2013-06-20 02:27:00,
2013-06-19 21:32:00,75.2,71.4,29.99,WSW,248,0.0,0.0,88,0.00,,SKC,0.59,VWS V14.01,2013-06-20 02:32:00,
2013-06-19 21:37:00,75.1,71.3,29.99,WSW,248,0.0,0.0,88,0.00,,SKC,0.59,VWS V14.01,2013-06-20 02:37:00,
2013-06-19 21:42:00,75.0,71.2,29.99,WSW,248,0.0,0.0,88,0.00,,SKC,0.59,VWS V14.01,2013-06-20 02:42:00,
2013-06-19 21:47:00,74.9,71.1,29.99,WSW,248,0.0,0.0,88,0.00,,SKC,0.59,VWS V14.01,2013-06-20 02:47:00,
2013-06-19 21:52:00,74.9,70.8,30.00,WSW,248,0.0,0.0,87,0.00,,SKC,0.59,VWS V14.01,2013-06-20 02:52:00,
2013-06-19 21:57:00,74.8,70.7,30.00,WSW,248,0.0,0.0,87,0.00,,SKC,0.59,VWS V14.01,2013-06-20 02:57:00,
2013-06-19 22:02:00,74.8,70.7,30.00,WSW,248,0.0,0.0,87,0.00,,SKC,0.59,VWS V14.01,2013-06-20 03:02:00,
2013-06-19 22:07:00,74.8,70.7,30.00,WSW,248,0.0,0.0,87,0.00,,SKC,0.59,VWS V14.01,2013-06-20 03:07:00,
2013-06-19 22:12:00,74.7,70.2,30.01,WSW,248,0.0,0.0,86,0.00,,SKC,0.59,VWS V14.01,2013-06-20 03:12:00,
2013-06-19 22:17:00,74.9,70.1,30.00,WSW,248,0.0,1.0,85,0.00,,SKC,0.59,VWS V14.01,2013-06-20 03:17:00,
2013-06-19 22:22:00,74.9,70.1,30.01,WSW,248,0.0,1.0,85,0.00,,SKC,0.59,VWS V14.01,2013-06-20 03:22:00,
2013-06-19 22:27:00,75.1,69.9,30.01,WSW,248,0.0,1.0,84,0.00,,SKC,0.59,VWS V14.01,2013-06-20 03:27:00,
2013-06-19 22:32:00,75.1,70.3,30.01,WSW,248,0.0,1.0,85,0.00,,SKC,0.59,VWS V14.01,2013-06-20 03:32:00,
2013-06-19 22:37:00,75.1,70.3,30.01,WSW,248,0.0,1.0,85,0.00,,SKC,0.59,VWS V14.01,2013-06-20 03:37:00,
2013-06-19 22:42:00,75.0,70.2,30.01,WSW,248,0.0,1.0,85,0.00,,SKC,0.59,VWS V14.01,2013-06-20 03:42:00,
2013-06-19 22:47:00,74.9,70.1,30.01,WSW,248,0.0,1.0,85,0.00,,SKC,0.59,VWS V14.01,2013-06-20 03:47:00,
2013-06-19 22:52:00,74.8,70.0,30.01,WSW,248,0.0,1.0,85,0.00,,SKC,0.59,VWS V14.01,2013-06-20 03:52:00,
2013-06-19 22:57:00,74.7,70.2,30.01,WSW,248,0.0,1.0,86,0.00,,SKC,0.59,VWS V14.01,2013-06-20 03:57:00,
2013-06-19 23:01:00,74.5,69.7,30.02,WSW,248,0.0,0.0,85,0.00,,SKC,0.59,VWS V14.01,2013-06-20 04:01:00,
2013-06-19 23:06:00,74.4,69.6,30.01,WSW,248,0.0,0.0,85,0.00,,SKC,0.59,VWS V14.01,2013-06-20 04:06:00,
2013-06-19 23:11:00,74.3,69.5,30.01,WSW,248,0.0,0.0,85,0.00,,SKC,0.59,VWS V14.01,2013-06-20 04:11:00,
2013-06-19 23:16:00,74.2,69.4,30.02,WSW,248,0.0,0.0,85,0.00,,SKC,0.59,VWS V14.01,2013-06-20 04:16:00,
2013-06-19 23:21:00,74.2,69.4,30.02,WSW,248,0.0,0.0,85,0.00,,SKC,0.59,VWS V14.01,2013-06-20 04:21:00,
2013-06-19 23:26:00,74.0,69.2,30.02,WSW,248,0.0,1.0,85,0.00,,SKC,0.59,VWS V14.01,2013-06-20 04:26:00,
2013-06-19 23:31:00,74.1,69.0,30.02,WSW,248,0.0,0.0,84,0.00,,SKC,0.59,VWS V14.01,2013-06-20 04:31:00,
2013-06-19 23:36:00,74.2,69.1,30.02,WSW,248,0.0,0.0,84,0.00,,SKC,0.59,VWS V14.01,2013-06-20 04:36:00,
2013-06-19 23:41:00,74.2,69.1,30.02,WSW,248,0.0,0.0,84,0.00,,SKC,0.59,VWS V14.01,2013-06-20 04:41:00,
2013-06-19 23:46:00,74.3,68.8,30.01,WSW,248,0.0,0.0,83,0.00,,SKC,0.59,VWS V14.01,2013-06-20 04:46:00,
2013-06-19 23:51:00,74.2,69.1,30.01,WSW,248,0.0,0.0,84,0.00,,SKC,0.59,VWS V14.01,2013-06-20 04:51:00,
2013-06-19 23:56:00,74.1,69.0,30.01,WSW,248,0.0,0.0,84,0.00,,SKC,0.59,VWS V14.01,2013-06-20 04:56:00,